User: anonymous   Login
Location: Breux
(46.3269°N, 3.2993°E)
Time: 02:45:03
(UTC+00:00)
Language:

Terra - Orbit

View from above orbital plane
View from above orbital plane
View from above satellite
View from above satellite

Ground track
Ground track

The orbit data is extracted from the following two-line orbital elements,

1 25994U 99068A   20192.79274265 -.00001061  00000-0 -22551-3 0  9995
2 25994  98.2126 266.7529 0001329  87.5241 272.6095 14.57106851 93717
Epoch (UTC): 10 July 2020 19:01:32
Eccentricity: 0.0001329
inclination: 98.2126°
perigee height: 701 km
apogee height: 703 km
right ascension of ascending node: 266.7529°
argument of perigee: 87.5241°
revolutions per day: 14.57106851
mean anomaly at epoch: 272.6095°
orbit number at epoch: 9371

The dashed part of the orbit path shows where the satellite is in the earth's shadow,  

DLR